RH
27 29 31 31 33 33 32 31 31 29 29 28 27 27 27 29 32 36 38 40 43 41 38 35 29 27 25 21 18 17 16 16 17 18 16 14 12 10 14 16 20 25 24
28 31 32 32 34 33 32 32 33 31 31 31 31 30 32 34 37 40 40 44 46 43 40 34 30 27 23 20 18 18 19 19 19 20 18 16 14 15 13 15 16 18 18
28 31 32 33 34 34 33 32 33 33 33 33 33 34 36 39 41 42 43 49 48 44 40 34 31 26 22 20 19 19 18 19 17 18 24 27 24 22 14 15 18 19 19
26 29 31 33 34 36 36 34 34 34 35 35 36 39 40 42 44 44 49 51 49 45 41 34 30 25 22 20 18 17 17 18 20 20 23 30 37 39 33 17 28 28 29
27 28 31 33 36 37 36 35 36 37 37 38 40 43 45 48 47 49 53 52 50 48 39 33 27 24 21 19 19 19 20 21 23 25 28 32 37 44 54 46 32 32 32
26 27 29 32 36 37 37 37 38 39 39 42 44 46 48 51 51 54 54 54 53 45 36 30 25 23 21 20 20 20 22 24 27 31 36 42 44 46 56 55 46 44 35
26 28 31 33 36 38 38 37 38 40 43 46 49 50 54 54 53 55 57 58 51 39 33 28 25 22 21 21 21 22 24 27 31 36 42 45 47 53 59 61 56 48 38
29 30 32 33 35 37 37 38 40 43 48 50 54 56 55 54 56 58 60 56 44 36 30 27 25 22 22 23 23 24 26 30 34 40 45 46 47 54 61 64 62 50 45
33 31 32 34 35 36 38 40 45 48 51 55 56 56 56 56 60 61 59 48 39 33 29 26 24 24 24 24 24 25 28 32 38 44 49 48 48 55 61 62 59 57 47
31 32 32 35 38 38 40 45 49 51 56 58 57 58 57 60 62 62 53 42 36 32 29 26 25 25 24 24 24 26 31 36 42 49 52 49 46 52 60 58 54 49 50
35 36 39 41 39 41 43 47 51 54 58 60 59 58 60 63 64 58 47 41 35 32 29 27 26 25 25 25 25 28 33 40 45 52 56 52 46 50 56 54 50 47 52
37 39 42 45 46 46 47 50 51 56 60 62 60 60 61 64 61 52 45 39 36 33 29 27 26 26 25 25 27 29 36 43 48 55 59 56 47 49 54 53 48 46 55
45 46 45 48 50 52 51 52 54 58 63 61 60 62 63 63 58 49 44 39 36 32 29 28 27 26 25 26 28 32 37 44 52 58 62 61 52 49 51 50 47 51 54
46 48 48 51 53 55 57 59 60 63 62 62 62 62 63 64 52 48 43 39 35 31 29 28 27 26 26 28 30 34 39 45 53 62 66 65 56 51 50 50 51 53 53
51 52 53 56 56 58 60 64 63 62 63 65 62 63 66 58 52 46 42 38 34 31 29 28 27 26 27 30 33 37 40 46 52 63 67 69 62 55 52 50 51 51 52
53 56 58 61 64 66 67 65 63 62 67 64 63 66 65 56 50 46 41 38 34 31 29 28 26 26 29 31 36 41 45 49 55 64 70 71 65 56 52 52 54 54 53
56 59 63 64 68 69 69 68 64 66 65 66 66 69 62 55 50 44 40 38 33 30 28 27 26 27 29 32 36 42 47 52 59 65 73 73 70 61 54 52 54 54 55
58 66 65 66 70 72 69 68 66 65 68 66 70 68 60 54 49 44 40 37 33 30 29 27 27 28 29 32 37 43 47 56 64 69 77 77 74 67 57 54 54 54 56
57 62 62 70 70 66 68 67 65 71 70 71 72 66 58 54 49 44 40 37 34 31 30 28 28 29 29 34 39 45 49 58 66 71 80 82 80 73 64 57 57 54 54
63 68 67 64 67 69 68 69 73 75 75 74 70 62 58 54 49 44 41 37 35 33 30 29 30 31 31 36 42 48 51 57 65 71 81 87 87 81 72 61 58 57 53
66 72 75 72 71 69 75 76 79 77 75 75 66 62 57 52 48 44 41 38 35 34 30 30 31 32 34 38 43 49 54 60 67 72 84 88 87 83 76 66 59 59 55
71 71 71 72 77 82 81 81 78 77 77 69 66 59 55 51 47 44 41 38 36 33 31 31 30 33 36 39 43 50 56 62 71 75 82 87 89 88 79 70 62 59 59
73 75 79 82 82 83 81 77 80 80 75 68 63 58 54 51 48 44 41 38 36 33 32 33 32 33 36 40 44 49 54 61 70 75 83 87 88 90 80 71 63 59 59
77 80 83 82 83 81 79 87 83 77 71 66 60 57 53 51 47 44 41 39 35 34 35 34 34 35 37 41 45 50 54 61 69 76 83 83 84 87 85 73 68 62 58
82 82 84 83 83 83 88 82 79 74 67 62 60 56 53 49 45 43 40 37 37 38 36 37 38 39 40 44 51 55 58 65 73 78 80 81 84 89 89 79 71 64 59
84 83 83 83 86 89 84 82 75 69 66 61 59 56 51 48 46 42 39 38 36 35 37 39 41 43 46 49 54 57 62 71 77 80 80 84 87 90 92 88 75 69 63